Zurück zum Katalog

STARLINK-30714

AktivKommunikationVLEO
NORAD 57939·PAYLOAD·🇺🇸 United States

Gestartet Sep 25, 2023 von Vandenberg Space Force Base

Loading…

Nächste Überflüge (nächste 24 Stunden)

TLE

AktuellSource: CelesTrak SupGP

Epoche: Sep 15, 2026, 03:14 UTC

1 57939C 23148E   26258.13520833  .00028009  00000+0  73366-3 0  2583
2 57939  53.1546 222.3081 0006346  56.9488 327.3685 15.38098757    14

Verfolge STARLINK-30714 in Echtzeit mit AllMySat

Download on the App Store